SL-14 R/B

Satellite information

Favourite Embed

Satellite Type and Status

ROCKET BODYIN ORBIT

Key statistics

Satellite SL-14 R/B at a glance.

Uptime

11857

Days in orbit

Revolutions

≈ 12.6

Per day

Orbit

LEO

Low Earth Orbit

Inclination

82.6

Latest

Satellite identification and parameters

Extended collection of information and parameters for SL-14 R/B.

Object identification

Identified? True

Debris? False

Object name: SL-14 R/B

International designator: 1993-030G

Object number (NORAD): 22652

Object ID (CCSDS): 22652

Country: COMMONWEALTH OF INDEPENDENT STATES (CIS)

Current information (Y/N): Y

RCS size: MEDIUM

Orbital parameters

Period: 113.997 minutes

Inclination: 82.5826 deg

SMA: 7787.926 km

Apoapsis: 1416.368 km

Periapsis: 1403.214 km

RAAN: 113.7136 deg

Eccentricy: 0.00084452

Argument of periapsis: 109.1482 deg

Mean anomaly: 5.419 deg

Mean motion: 12.63193969 rev/day

Mean motion (dot): 0.00000015 rev/day2

B* drag term: 0.000026548659 1/REarth

Two-line elements (TLE)

Creation date: Oct. 26, 2025, 2:54 a.m.

Reference frame: TEME

Reference center: EARTH

Epoch: Oct. 25, 2025, 11:03 p.m. UTC

TLE line 0: 0 SL-14 R/B

TLE line 1: 1 22652U 93030G 25298.96068942 .00000015 00000-0 26549-4 0 9998

TLE line 2: 2 22652 82.5826 113.7136 0008445 109.1482 5.4190 12.63193969496465

Live tracking on map

Real-time ground track for satellite SL-14 R/B.

In-orbit conjunctions

A list of the most updated potential collisions computed for object SL-14 R/B.

Target Orbit TCA Probability of collision Miss distance Type
COSMOS 2253 LEO 2025-04-12 11:43:18 0.001848225 173.0 (m) PAYLOAD
COSMOS 2338 LEO 2024-07-26 20:32:09 0.003166925 155.0 (m) PAYLOAD

Associated space launch

Second generation store-dump military communications satellite

SL-14 R/B was lifted into orbit during the mission ‘Tsiklon-3 | Strela-3 89 to 94’, on board a Tsiklon-3 space rocket.

The launch took place on May 11, 1993, 2:56 p.m. from 32/1.

For more information about the launch, click the button.

Launch to space Tsiklon-3 | Strela-3 89 to 94
Tsiklon-3 | Strela-3 89 to 94

Agency: N/A

Status: Launch Successful

Launch date: May 11, 1993, 2:56 p.m. UTC

Rocket: Tsiklon-3

Launch pad: 32/1

Location: Plesetsk Cosmodrome, Russian Federation

...

Latest news about this satellite

There are no fresh news available about this satellite. Check back as we update our databases every day.


Newsletter sign-up

Weekly statistics, charts and insights to help you stay on top of the space industry.